Kahului, HI

3:17 AM HST on April 25, 2017 (GMT -1000)
Kahului

Weather History for PHOG - March, 2012

Change the Weather History Date:

Friday, March 16, 2012

  Actual Average Record
Temperature  
Mean Temperature 77 °F 73 °F  
Max Temperature 85 °F 81 °F 87 °F (1966)
Min Temperature 69 °F 64 °F 51 °F (2005)
Degree Days  
Heating Degree Days 0 0  
Month to date heating degree days 0 0  
Since 1 July heating degree days 0 0  
Cooling Degree Days 12 8  
Month to date cooling degree days 104 120  
Year to date cooling degree days 577 529  
Growing Degree Days 26 (Base 50)    
Moisture  
Dew Point 61 °F    
Average Humidity 60    
Maximum Humidity 73    
Minimum Humidity 47    
Precipitation  
Precipitation 0.00 in 0.08 in 0.53 in (1955)
Month to date precipitation 2.52 1.25  
Year to date precipitation 2.60 6.01  
Snow  
Snow 0.00 in - - ()
Month to date snowfall 0.0  
Since 1 July snowfall 0.0  
Snow Depth 0.00 in    
Sea Level Pressure  
Sea Level Pressure 30.15 in    
Wind  
Wind Speed 18 mph (ENE)    
Max Wind Speed 28 mph    
Max Gust Speed 43 mph    
Visibility 10 miles    
Events      
T = Trace of Precipitation, MM = Missing Value Source: NWS Daily Summary

Daily Weather History Graph

Daily Weather History Graph

Search for Another Location

Airport or City:

Trip Planner

Search our weather history database for the weather conditions in past years. The results will help you decide how hot, cold, wet, or windy it might be!

Date:

Astronomy

Mar. 16, 2012 Rise Set
Actual Time 6:32 AM HST 6:35 PM HST
Civil Twilight 6:10 AM HST 6:57 PM HST
Nautical Twilight 5:44 AM HST 7:23 PM HST
Astronomical Twilight 5:19 AM HST 7:49 PM HST
Moon 2:21 AM HST (3/16) 1:44 PM HST (3/16)
Length of Visible Light 12h 47m
Length of Day
12h 03m
Waning Crescent, 30% of the Moon is Illuminated
Mar 16
Waning Crescent
Mar 22
New
Mar 30
First Quarter
Apr 6
Full
Apr 13
Last Quarter

Hourly Weather History & Observations

Time (HST) Temp. Heat Index Dew Point Humidity Pressure Visibility Wind Dir Wind Speed Gust Speed Precip Events Conditions
12:54 AM 70.0 °F - 59.0 °F 68% 30.15 in 10.0 mi NE 18.4 mph 24.2 mph N/A   Clear
1:54 AM 70.0 °F - 57.9 °F 65% 30.14 in 10.0 mi NE 15.0 mph 21.9 mph N/A   Clear
2:54 AM 70.0 °F - 60.1 °F 71% 30.13 in 10.0 mi NE 18.4 mph 24.2 mph N/A   Clear
3:54 AM 71.1 °F - 61.0 °F 70% 30.13 in 10.0 mi NE 15.0 mph - N/A   Clear
4:54 AM 70.0 °F - 60.1 °F 71% 30.14 in 10.0 mi ENE 13.8 mph 24.2 mph N/A   Clear
5:54 AM 71.1 °F - 60.1 °F 68% 30.15 in 10.0 mi NE 19.6 mph 27.6 mph N/A   Clear
6:54 AM 70.0 °F - 60.1 °F 71% 30.16 in 10.0 mi NE 21.9 mph 27.6 mph N/A   Partly Cloudy
7:54 AM 73.0 °F - 61.0 °F 66% 30.18 in 10.0 mi ENE 17.3 mph 28.8 mph N/A   Clear
8:54 AM 75.0 °F - 59.0 °F 57% 30.20 in 10.0 mi ESE 10.4 mph 36.8 mph N/A   Partly Cloudy
9:54 AM 78.1 °F - 61.0 °F 56% 30.19 in 10.0 mi ENE 16.1 mph 25.3 mph N/A   Scattered Clouds
10:54 AM 79.0 °F - 60.1 °F 52% 30.18 in 10.0 mi ENE 18.4 mph 34.5 mph N/A   Partly Cloudy
11:54 AM 81.0 °F 81.7 °F 61.0 °F 50% 30.16 in 10.0 mi ENE 24.2 mph 33.4 mph N/A   Scattered Clouds
12:54 PM 82.0 °F 82.4 °F 60.1 °F 47% 30.13 in 10.0 mi East 18.4 mph 32.2 mph N/A   Partly Cloudy
1:54 PM 82.9 °F 83.3 °F 61.0 °F 47% 30.10 in 10.0 mi ENE 20.7 mph 29.9 mph N/A   Scattered Clouds
2:54 PM 82.0 °F 82.7 °F 61.0 °F 49% 30.09 in 10.0 mi East 19.6 mph 29.9 mph N/A   Scattered Clouds
3:54 PM 81.0 °F 81.7 °F 61.0 °F 50% 30.09 in 10.0 mi ENE 20.7 mph 32.2 mph N/A   Scattered Clouds
4:54 PM 78.1 °F - 60.1 °F 54% 30.10 in 10.0 mi ENE 23.0 mph 31.1 mph N/A   Scattered Clouds
5:54 PM 75.0 °F - 59.0 °F 57% 30.12 in 10.0 mi ENE 23.0 mph 32.2 mph N/A   Partly Cloudy
6:54 PM 73.0 °F - 60.1 °F 64% 30.15 in 10.0 mi ENE 19.6 mph 28.8 mph N/A   Scattered Clouds
7:54 PM 73.0 °F - 62.6 °F 70% 30.17 in 10.0 mi East 18.4 mph 27.6 mph N/A   Partly Cloudy
8:54 PM 72.0 °F - 64.4 °F 77% 30.19 in 10.0 mi ENE 15.0 mph 27.6 mph N/A   Partly Cloudy
9:54 PM 72.0 °F - 66.2 °F 82% 30.22 in 10.0 mi NE 17.3 mph 26.5 mph N/A   Scattered Clouds
10:54 PM 71.1 °F - 66.2 °F 85% 30.22 in 10.0 mi NE 16.1 mph 24.2 mph N/A   Partly Cloudy
11:54 PM 72.0 °F - 63.0 °F 73% 30.21 in 10.0 mi NE 15.0 mph 23.0 mph N/A   Mostly Cloudy